Showing default

IRS P4 (OCEANSAT 1), 25758

Orbit data source: Space-Track

IRS P4 (OCEANSAT 1), 25758 is a payload satellite owned by ISRO (IN) in SSO that was launched on Wed, 26 May 1999 UTC via a PSLV launch vehicle from the Sirharikota (SRI). Payload-class satellites include a variety of spacecraft equipped with specific instruments for various scientific and technological missions. These include communications satellites like Starlink; space stations such as the ISS; scientific satellites like the Hubble; Earth observation satellites from companies like Planet Labs, Umbra, and HawkEye 360; GPS; miniature CubeSats for education and research; and military/defense satellites.

Loading next visibility...
Identifier
25758, 1999-029C
Orbit
SSO
Country
Flag of ININ / IND
Related business
Manufacturer
ISAC/HAL
Mission
Non-operational Civil Imaging
Bus & Motor
IRS, AOCS
Mass
1,036 kg wet, 952 kg dry
Launch date (UTC)
1999-05-26 (26 years ago)
Launch vehicle
PSLV
Launch site
Sirharikota (SRI)
Object type
Payload
Rocket body
Debris
Shape & HBR
Box + 1 Pan, 5.8 m
Radar Cross Section
12.382 m², Large (>1 m²)

Expand to show TLE details & history
Last TLE update: 21 hours ago

TLE from 21 hours ago
0 IRS P4 (OCEANSAT 1)
1 25758U 99029C   25305.43633278  .00000732  00000-0  17977-3 0  9993
2 25758  97.9428 284.2170 0003851 123.5880 236.5687 14.54981887400990
Epoch: 2025-11-01T10:28Z
TLE epoch observation values (Epoch: 2025-11-01T10:28:19.152Z)
Latitude
0.00008°
Longitude
86.17075°
Altitude
713.914 km
Speed
7.498 km/s
True Right ascension
18h 56m 52s
True Declination
0° 00' 00"
Sunlit
Object was in daylight at epoch
Visualization orbit readout
Latitude
Unknown
Longitude
Unknown
Altitude
Unknown
Speed
Unknown
Apparent Right ascension
Unknown
Apparent Declination
Unknown
Sunlit
N/A
Visualization observer readout
Local Sidereal Time
02:53:09
Azimuth
Unknown
Elevation
Unknown
Doppler factor
Unknown
Orbital elements
Apogee altitude
709.228 km
Perigee altitude
703.772 km
Semi-major axis
7,084.637 km
Eccentricity
0.00039
Inclination
97.9428°
RAAN
284.217°
Arg. of periapsis
123.588°
True anomaly
236.53188°
Mean anomaly
236.5687°
Eccentric anomaly
236.55029°
Mean motion
3.63971 °/min
Orbital period
98.91 mins
BSTAR
0.00017977
Loading maneuver chart data...
Computing Atmospheric mass density...
Loading historical data...
Loading historical data...
Loading historical data...
Loading historical data...
Loading historical data...
Loading historical data...
Loading historical data...
Other satellites on launch #29 in the year 1999 (1999-05-26 UTC)

Documentation

Showing up to 5 results
|